カタログに戻る

SL-16 DEB

運用中LEO
NORAD 22376·DEBRIS·🇷🇺 Russia

打ち上げ Dec 25, 1992 から Baikonur Cosmodrome

Loading…

次のパス (今後24時間)

TLE

最新Source: Space-Track

元期: Sep 14, 2026, 12:18 UTC

1 22376U 92093BR  26257.51294161  .00001218  00000-0  47326-3 0  9991
2 22376  70.8867 194.1904 0055887 262.7487 212.9826 14.31069699738775

AllMySatでSL-16 DEBをリアルタイム追跡

Download on the App Store